Williamtown, Australia

5:09 PM AEDT on October 17, 2017 (GMT +1100)
Williamtown Military

Weather History for YWLM - June, 2013

Change the Weather History Date:

Monday, June 10, 2013

  Actual Average Record
Temperature  
Mean Temperature 57 °F -  
Max Temperature 69 °F - - ()
Min Temperature 45 °F - - ()
Degree Days  
Heating Degree Days 8    
Growing Degree Days 7 (Base 50)    
Moisture  
Dew Point 51 °F    
Average Humidity 92    
Maximum Humidity 100    
Minimum Humidity 59    
Precipitation  
Precipitation 0.01 in - - ()
Sea Level Pressure  
Sea Level Pressure 30.14 in    
Wind  
Wind Speed 3 mph ()    
Max Wind Speed 10 mph    
Max Gust Speed -    
Visibility 3.2 miles    
Events Fog , Rain    
T = Trace of Precipitation, MM = Missing Value Source: Averaged Metar Reports

Daily Weather History Graph

Daily Weather History Graph

Search for Another Location

Airport or City:

Trip Planner

Search our weather history database for the weather conditions in past years. The results will help you decide how hot, cold, wet, or windy it might be!

Date:

Astronomy

Jun. 10, 2013 Rise Set
Actual Time 6:51 AM AEST 4:53 PM AEST
Civil Twilight 6:23 AM AEST 5:20 PM AEST
Nautical Twilight 5:53 AM AEST 5:51 PM AEST
Astronomical Twilight 5:23 AM AEST 6:21 PM AEST
Moon 7:44 AM AEST (6/10) 6:18 PM AEST (6/10)
Length of Visible Light 10h 56m
Length of Day
10h 02m
New Moon, 2% of the Moon is Illuminated
Jun 10
New Moon
Jun 17
First Quarter
Jun 23
Full
Jun 30
Last Quarter
Jul 8
New

Hourly Weather History & Observations

Time (AEST) Temp. Windchill Dew Point Humidity Pressure Visibility Wind Dir Wind Speed Gust Speed Precip Events Conditions
12:00 AM 49 °F - 49 °F 99% 30.22 in 0 mi Calm Calm - -  
12:00 AM 50.0 °F - 48.2 °F 94% 30.21 in 0.4 mi Calm Calm - N/A   Unknown
12:07 AM 48.2 °F - 48.2 °F 100% 30.21 in 0.6 mi Calm Calm - N/A   Unknown
12:22 AM 48.2 °F - 46.4 °F 93% 30.18 in 0.7 mi Calm Calm - N/A   Unknown
12:30 AM 48.2 °F - 46.4 °F 93% 30.18 in 0.1 mi Calm Calm - N/A   Scattered Clouds
12:47 AM 48.2 °F - 48.2 °F 100% 30.18 in 0.3 mi Calm Calm - N/A   Mostly Cloudy
1:00 AM 49 °F - 48 °F 94% 30.20 in - Calm Calm - -  
1:00 AM 48.2 °F - 48.2 °F 100% 30.18 in 0.1 mi Calm Calm - N/A   Mostly Cloudy
1:30 AM 48.2 °F - 48.2 °F 100% 30.18 in 0.2 mi Calm Calm - N/A   Mostly Cloudy
2:00 AM 46.4 °F - 46.4 °F 100% 30.18 in 0.2 mi Calm Calm - N/A   Mostly Cloudy
2:30 AM 46.4 °F - 46.4 °F 100% 30.18 in 0.1 mi Calm Calm - N/A   Mostly Cloudy
2:53 AM 46.4 °F - 46.4 °F 100% 30.18 in 0.6 mi Calm Calm - N/A   Scattered Clouds
2:59 AM 46.4 °F - 46.4 °F 100% 30.18 in 0.6 mi Calm Calm - N/A   Scattered Clouds
3:00 AM 47 °F - 47 °F 99% 30.19 in 0 mi Calm Calm - -  
3:00 AM 46.4 °F - 46.4 °F 100% 30.18 in 0.5 mi Calm Calm - N/A   Scattered Clouds
3:08 AM 46.4 °F - 46.4 °F 100% 30.18 in 0.6 mi Calm Calm - N/A   Scattered Clouds
3:09 AM 46.4 °F - 46.4 °F 100% 30.18 in 0.7 mi Calm Calm - N/A   Mostly Cloudy
3:12 AM 46.4 °F - 46.4 °F 100% 30.18 in 0.6 mi Calm Calm - N/A   Mostly Cloudy
3:30 AM 46.4 °F - 46.4 °F 100% 30.15 in 0.1 mi Calm Calm - N/A   Overcast
3:49 AM 46.4 °F 44.3 °F 46.4 °F 100% 30.18 in 0.6 mi NNW 4.6 mph - N/A   Scattered Clouds
3:56 AM 46.4 °F 45.2 °F 46.4 °F 100% 30.15 in 1.3 mi North 3.5 mph - N/A   Scattered Clouds
4:00 AM 47 °F - 46 °F 96% 30.18 in - North 3.5 mph - -  
4:00 AM 46.4 °F 45.2 °F 46.4 °F 100% 30.15 in 1.5 mi North 3.5 mph - N/A   Scattered Clouds
4:05 AM 48.2 °F - 48.2 °F 100% 30.15 in 0.5 mi NNW 4.6 mph - N/A   Unknown
4:18 AM 48.2 °F - 48.2 °F 100% 30.15 in 0.1 mi North 4.6 mph - N/A   Mostly Cloudy
4:30 AM 46.4 °F 45.2 °F 46.4 °F 100% 30.15 in 0.1 mi North 3.5 mph - N/A   Mostly Cloudy
5:00 AM 46.4 °F - 46.4 °F 100% 30.15 in 0.3 mi Calm Calm - N/A   Overcast
5:30 AM 46.4 °F - 46.4 °F 100% 30.15 in 0.3 mi Calm Calm - N/A   Overcast
6:00 AM 47 °F - 47 °F 98% 30.19 in 1 mi NNW 6.9 mph - - Fog Partial Fog
6:00 AM 46.4 °F 42.9 °F 46.4 °F 100% 30.18 in 0.6 mi NNW 6.9 mph - N/A Fog Fog
6:30 AM 48.2 °F - 48.2 °F 100% 30.15 in 0.2 mi North 4.6 mph - N/A Fog Fog
7:00 AM 47 °F - 47 °F 100% 30.18 in - North 1.2 mph - -  
7:00 AM 48.2 °F - 46.4 °F 93% 30.15 in 0.1 mi North 1.2 mph - N/A Fog Fog
7:30 AM 48.2 °F - 48.2 °F 100% 30.18 in 1.2 mi NW 4.6 mph - N/A Fog Patches of Fog
8:00 AM 48.2 °F - 48.2 °F 100% 30.18 in 0.7 mi WNW 6.9 mph - N/A Fog Patches of Fog
8:12 AM 48.2 °F - 48.2 °F 100% 30.18 in 0.6 mi WNW 8.1 mph - N/A Fog Fog
8:30 AM 48.2 °F - 48.2 °F 100% 30.18 in 0.4 mi WNW 6.9 mph - N/A Fog Fog
8:52 AM 51.8 °F - 50.0 °F 94% 30.18 in 3.1 mi NW 4.6 mph - N/A Fog Fog
9:00 AM 53 °F - 52 °F 97% 30.19 in 9 mi NNW 5.8 mph - - Fog Patches of Fog
9:00 AM 53.6 °F - 51.8 °F 94% 30.18 in 6.2 mi NNW 5.8 mph - N/A Fog Patches of Fog
9:07 AM 51.8 °F - 51.8 °F 100% 30.18 in 6.2 mi WNW 6.9 mph - N/A   Scattered Clouds
9:30 AM 55.4 °F - 51.8 °F 88% 30.18 in 6.2 mi NW 6.9 mph - N/A   Partly Cloudy
10:00 AM 58 °F - 54 °F 80% 30.19 in - WNW 8.1 mph - -  
10:00 AM 57.2 °F - 53.6 °F 88% 30.18 in 6.2 mi WNW 8.1 mph - N/A   Partly Cloudy
10:30 AM 60.8 °F - 53.6 °F 77% 30.15 in - NNW 8.1 mph - N/A   Clear
11:00 AM 62.6 °F - 53.6 °F 72% 30.15 in - NNW 6.9 mph - N/A   Clear
11:30 AM 60.8 °F - 53.6 °F 77% 30.15 in - NNW 6.9 mph - N/A   Clear
12:00 PM 63 °F - 54 °F 64% 30.14 in 19 mi NW 5.8 mph - -   Partly Cloudy
12:00 PM 62.6 °F - 53.6 °F 72% 30.12 in 6.2 mi NW 5.8 mph - N/A   Mostly Cloudy
12:30 PM 66.2 °F - 55.4 °F 68% 30.09 in 6.2 mi NNE 2.3 mph - N/A   Mostly Cloudy
1:00 PM 67 °F - 56 °F 59% 30.10 in - Calm Calm - -  
1:00 PM 68.0 °F - 55.4 °F 64% 30.09 in 6.2 mi Calm Calm - N/A   Mostly Cloudy
1:30 PM 69.8 °F - 55.4 °F 60% 30.06 in 6.2 mi Calm Calm - N/A   Mostly Cloudy
2:00 PM 68.0 °F - 57.2 °F 68% 30.06 in 6.2 mi Calm Calm - N/A   Mostly Cloudy
2:30 PM 68.0 °F - 57.2 °F 68% 30.06 in 6.2 mi NW 5.8 mph - N/A   Mostly Cloudy
3:00 PM 66 °F - 57 °F 64% 30.10 in 19 mi West 9.2 mph - -   Mostly Cloudy
3:00 PM 66.2 °F - 57.2 °F 73% 30.09 in 6.2 mi West 9.2 mph - N/A   Mostly Cloudy
3:30 PM 66.2 °F - 55.4 °F 68% 30.09 in 6.2 mi WNW 8.1 mph - N/A   Mostly Cloudy
4:00 PM 64 °F - 56 °F 67% 30.11 in - WNW 10.4 mph - -  
4:00 PM 64.4 °F - 55.4 °F 73% 30.09 in 6.2 mi WNW 10.4 mph - N/A Rain Light Rain
4:30 PM 60.8 °F - 57.2 °F 88% 30.09 in 6.2 mi West 6.9 mph - N/A   Mostly Cloudy
5:00 PM 60.8 °F - 59.0 °F 94% 30.09 in 6.2 mi WNW 6.9 mph - N/A   Mostly Cloudy
5:30 PM 59.0 °F - 57.2 °F 94% 30.09 in - WNW 6.9 mph - N/A   Clear
6:00 PM 58 °F - 57 °F 94% 30.12 in - WNW 5.8 mph - -  
6:00 PM 59.0 °F - 57.2 °F 94% 30.09 in 6.2 mi WNW 5.8 mph - N/A   Mostly Cloudy
6:30 PM 59.0 °F - 57.2 °F 94% 30.09 in 6.2 mi WNW 5.8 mph - N/A   Scattered Clouds
7:00 PM 57 °F - 56 °F 96% 30.12 in - NW 5.8 mph - -  
7:00 PM 57.2 °F - 55.4 °F 94% 30.12 in - NW 5.8 mph - N/A   Clear
7:30 PM 55.4 °F - 55.4 °F 100% 30.12 in - NW 6.9 mph - N/A   Clear
8:00 PM 55.4 °F - 55.4 °F 100% 30.12 in - NW 5.8 mph - N/A   Clear
8:34 PM 55.4 °F - 55.4 °F 100% 30.12 in 3.7 mi NW 5.8 mph - N/A   Unknown
8:50 PM 55.4 °F - 55.4 °F 100% 30.12 in 0.4 mi WNW 4.6 mph - N/A   Unknown
9:00 PM 54 °F - 54 °F 98% 30.13 in 0 mi West 4.6 mph - -  
9:00 PM 53.6 °F - 53.6 °F 100% 30.12 in 0.1 mi West 4.6 mph - N/A   Unknown
9:17 PM 53.6 °F - 53.6 °F 100% 30.12 in 0.7 mi WNW 6.9 mph - N/A   Unknown
9:30 PM 53.6 °F - 53.6 °F 100% 30.12 in 2.8 mi WNW 6.9 mph - N/A   Unknown
9:52 PM 55.4 °F - 53.6 °F 94% 30.09 in 6.2 mi WNW 8.1 mph - N/A   Unknown
10:00 PM 55 °F - 54 °F 95% 30.12 in - WNW 8.1 mph - -  
10:00 PM 55.4 °F - 53.6 °F 94% 30.09 in 6.2 mi WNW 8.1 mph - N/A   Unknown
10:30 PM 55.4 °F - 53.6 °F 94% 30.09 in 6.2 mi WNW 6.9 mph - N/A   Unknown
11:00 PM 55.4 °F - 53.6 °F 94% 30.09 in 6.2 mi NW 8.1 mph - N/A   Unknown
11:30 PM 55.4 °F - 53.6 °F 94% 30.09 in 6.2 mi NW 8.1 mph - N/A   Unknown